Location: Unspecified
(0.0000°N, 0.0000°E)
Time: 11:13:29
(UTC+00:00)

ACS3 Solar Sail - Pass Details

Date: 18 June 2025
Orbit: 919 x 1019 km, 97.5° (Epoch: 21 June)

Event Time Altitude Azimuth Distance (km) Brightness Sun altitude
Rises 05:29:30 0° 357° (N) 3,598 5.1 -7.3°
Reaches altitude 10° 05:32:02 10° 351° (N) 2,669 4.3 -6.7°
Maximum altitude 05:37:39 42° 281° (WNW) 1,341 2.2 -5.4°
Drops below altitude 10° 05:43:26 10° 212° (SSW) 2,744 3.7 -4.1°
Sets 05:46:04 0° 205° (SSW) 3,708 4.4 -3.5°
